Retour au catalogue

STARLINK-3998

ActifCommunicationsVLEO
NORAD 52610·PAYLOAD·🇺🇸 United States

Lancé May 14, 2022 depuis Cape Canaveral Space Force Station

Loading…

Prochains Passages (prochaines 24 heures)

TLE

FraisSource: CelesTrak SupGP

Époque: Sep 14, 2026, 21:44 UTC

1 52610C 22052N   26257.90604167 -.00056222  00000+0 -16087-2 0  2579
2 52610  53.1567 142.4835 0001264  88.3395 303.8515 15.35424433    19

Suivez STARLINK-3998 en temps réel avec AllMySat

Download on the App Store